This demonstration page uses our WeatherBlox Daily Observations layout. Learn more.

Left ArrowRight Arrow

Hourly Observations for January 23, 2018

Temp ( °F °C ) Dew Point ( °F °C ) Humidity (%) Winds ( mph kmh ) Pressure ( in mb ) Visibility ( mi km ) Precip ( " mm )
12:56 am 00:56 Clear 22 -5.6 18 -7.8 85 85 NW 15 24 30.10 1019 10 16 0.00 0.00
1:56 am 01:56 Clear 21 -6.1 17 -8.3 85 85 NW 17 28 30.11 1020 10 16 0.00 0.00
2:56 am 02:56 Clear 21 -6.1 16 -8.9 81 81 NW 13 20 30.13 1020 10 16 0.00 0.00
3:56 am 03:56 Clear 18 -7.8 14 -10 84 84 NW 13 20 30.15 1021 10 16 0.00 0.00
4:56 am 04:56 Clear 19 -7.2 14 -10 81 81 NW 10 17 30.15 1021 10 16 0.00 0.00
5:56 am 05:56 Clear 16 -8.9 12 -11.1 84 84 WNW 6 9 30.18 1022 10 16 0.00 0.00
6:56 am 06:56 Clear 17 -8.3 13 -10.6 84 84 NNW 7 11 30.19 1022 10 16 0.00 0.00
7:56 am 07:56 Sunny 15 -9.4 12 -11.1 88 88 WNW 12 19 30.20 1023 10 16 0.00 0.00
8:56 am 08:56 Sunny 19 -7.2 13 -10.6 77 77 WNW 10 17 30.22 1023 10 16 0.00 0.00
9:56 am 09:56 Sunny 23 -5 16 -8.9 74 74 WNW 10 17 30.25 1025 10 16 0.00 0.00
10:56 am 10:56 Sunny 28 -2.2 19 -7.2 69 69 W 10 17 30.27 1025 10 16 0.00 0.00
11:56 am 11:56 Sunny 32 0 21 -6.1 64 64 WNW 9 15 30.26 1025 10 16 0.00 0.00
12:56 pm 12:56 Partly Cloudy 33 0.6 25 -3.9 72 72 WNW 8 13 30.25 1024 10 16 0.00 0.00
1:56 pm 13:56 Cloudy 35 1.7 28 -2.2 76 76 WNW 9 15 30.24 1024 10 16 0.00 0.00
2:56 pm 14:56 Mostly Sunny 37 2.8 29 -1.7 73 73 WNW 8 13 30.24 1024 10 16 0.00 0.00
3:56 pm 15:56 Cloudy 36 2.2 30 -1.1 79 79 W 12 19 30.26 1025 10 16 0.00 0.00
4:56 pm 16:56 Sunny 36 2.2 30 -1.1 79 79 W 10 17 30.27 1025 10 16 0.00 0.00
5:56 pm 17:56 Clear 34 1.1 28 -2.2 79 79 W 10 17 30.29 1026 10 16 0.00 0.00
6:56 pm 18:56 Clear 33 0.6 26 -3.3 75 75 W 10 17 30.30 1026 10 16 0.00 0.00
7:56 pm 19:56 Clear 31 -0.6 26 -3.3 82 82 WNW 9 15 30.32 1027 10 16 0.00 0.00
8:56 pm 20:56 Clear 30 -1.1 25 -3.9 82 82 WNW 8 13 30.32 1027 10 16 0.00 0.00
9:56 pm 21:56 Clear 30 -1.1 24 -4.4 79 79 WNW 10 17 30.33 1027 10 16 0.00 0.00
10:56 pm 22:56 Clear 27 -2.8 22 -5.6 81 81 WNW 12 19 30.33 1027 10 16 0.00 0.00
11:56 pm 23:56 Clear 26 -3.3 21 -6.1 81 81 WNW 12 19 30.34 1027 10 16 0.00 0.00

Powered by AerisWeather